Location: Cadeilhan
(42.8161°N, 0.3161°E)
Time: 06:18:58
(UTC+00:00)

Cosmos 1954 Rocket - Pass Details

Date: 18 February 2020
Orbit: 753 x 781 km, 74.0° (Epoch: 28 March)

Event Time Altitude Azimuth Distance (km) Brightness Sun altitude
Rises 05:45:34 0° 196° (SSW) 3,245 7.1 -12.9°
Reaches altitude 10° 05:47:56 10° 196° (SSW) 2,324 6.4 -12.5°
Maximum altitude 05:53:13 84° 108° (ESE) 791 4.1 -11.5°
Drops below altitude 10° 05:58:34 10° 21° (NNE) 2,343 6.7 -10.6°
Sets 06:00:57 0° 21° (NNE) 3,274 7.5 -10.1°
